Location: Newark
(45.5000°N, 11.4167°E)
Time: 20:15:39
(UTC+00:00)

Altair - Pass Details

Date: 26 August 2019
Orbit: 1501 x 1683 km, 47.2° (Epoch: 14 October)

Event Time Altitude Azimuth Distance (km) Brightness Sun altitude
Exits shadow 01:42:41 41° 217° (SW) 2,205 7.8 -25.0°
Maximum altitude 01:46:30 67° 151° (SSE) 1,713 7.6 -24.6°
Drops below altitude 10° 01:55:55 10° 72° (ENE) 3,752 10.4 -23.5°
Sets 01:58:57 0° 69° (ENE) 4,715 11.1 -23.1°
